QPF
0.00 0.00 0.01 0.00 0.01 0.00 0.00 0.00 0.01 0.05 0.02 0.09 0.10 0.10 0.06 0.04 0.01 0.00 0.00 0.00 0.00 0.00 0.00 0.00 0.00 0.00 0.01 0.01 0.00 0.00 0.01 0.03 0.01 0.00 0.00 0.00 0.00 0.00 0.00 0.00 0.00 0.00 0.00 0.00 0.00 0.00 0.00
0.00 0.00 0.01 0.01 0.01 0.00 0.00 0.00 0.00 0.03 0.01 0.03 0.04 0.04 0.04 0.01 0.00 0.00 0.00 0.00 0.00 0.00 0.00 0.00 0.00 0.01 0.01 0.01 0.00 0.03 0.02 0.02 0.00 0.00 0.00 0.00 0.00 0.00 0.00 0.00 0.00 0.00 0.00 0.00 0.00 0.00 0.00
0.00 0.00 0.01 0.01 0.01 0.01 0.01 0.00 0.00 0.01 0.01 0.00 0.01 0.02 0.02 0.00 0.00 0.00 0.00 0.00 0.00 0.00 0.00 0.00 0.01 0.01 0.02 0.00 0.00 0.01 0.00 0.00 0.00 0.00 0.00 0.00 0.00 0.00 0.00 0.00 0.00 0.00 0.00 0.00 0.00 0.00 0.00
0.00 0.00 0.00 0.01 0.01 0.01 0.01 0.00 0.00 0.00 0.00 0.00 0.00 0.00 0.00 0.00 0.00 0.00 0.00 0.00 0.00 0.00 0.00 0.01 0.01 0.00 0.01 0.01 0.02 0.01 0.00 0.00 0.00 0.00 0.00 0.00 0.00 0.00 0.00 0.00 0.00 0.00 0.00 0.00 0.00 0.00 0.00
0.00 0.00 0.01 0.01 0.01 0.02 0.01 0.00 0.00 0.00 0.00 0.00 0.00 0.00 0.00 0.00 0.00 0.00 0.00 0.00 0.01 0.01 0.01 0.03 0.01 0.00 0.01 0.02 0.02 0.00 0.00 0.00 0.00 0.00 0.00 0.00 0.00 0.00 0.00 0.00 0.00 0.00 0.00 0.00 0.00 0.00 0.00
0.00 0.00 0.01 0.01 0.02 0.02 0.01 0.00 0.00 0.00 0.00 0.00 0.00 0.00 0.00 0.00 0.00 0.00 0.00 0.00 0.00 0.01 0.01 0.02 0.01 0.01 0.00 0.00 0.00 0.00 0.00 0.00 0.00 0.00 0.00 0.00 0.00 0.00 0.00 0.00 0.00 0.00 0.00 0.00 0.00 0.00 0.00
0.00 0.00 0.01 0.01 0.03 0.02 0.01 0.00 0.00 0.00 0.00 0.00 0.00 0.00 0.00 0.00 0.00 0.00 0.00 0.00 0.00 0.00 0.00 0.00 0.00 0.00 0.00 0.00 0.00 0.00 0.00 0.00 0.00 0.00 0.00 0.00 0.00 0.00 0.00 0.00 0.00 0.00 0.00 0.00 0.00 0.00 0.00
0.00 0.00 0.01 0.01 0.03 0.02 0.01 0.00 0.00 0.00 0.00 0.00 0.00 0.00 0.00 0.00 0.00 0.00 0.00 0.00 0.00 0.00 0.01 0.00 0.00 0.00 0.00 0.00 0.00 0.00 0.00 0.00 0.00 0.00 0.00 0.00 0.00 0.00 0.00 0.00 0.00 0.00 0.00 0.00 0.00 0.00 0.00
0.00 0.00 0.00 0.00 0.02 0.02 0.00 0.00 0.00 0.00 0.00 0.00 0.00 0.00 0.00 0.00 0.00 0.00 0.00 0.00 0.00 0.00 0.00 0.00 0.00 0.00 0.00 0.00 0.00 0.00 0.00 0.00 0.00 0.00 0.00 0.00 0.00 0.00 0.00 0.00 0.00 0.00 0.00 0.00 0.00 0.00 0.00
0.00 0.00 0.00 0.00 0.01 0.02 0.01 0.00 0.00 0.00 0.00 0.00 0.00 0.00 0.00 0.00 0.00 0.00 0.00 0.00 0.00 0.00 0.00 0.00 0.00 0.00 0.00 0.00 0.00 0.00 0.00 0.00 0.00 0.00 0.00 0.00 0.00 0.00 0.00 0.00 0.00 0.00 0.00 0.00 0.00 0.00 0.00
0.00 0.00 0.00 0.00 0.00 0.02 0.02 0.01 0.00 0.00 0.00 0.00 0.00 0.00 0.00 0.00 0.00 0.00 0.00 0.00 0.00 0.00 0.00 0.00 0.00 0.00 0.00 0.00 0.00 0.00 0.00 0.00 0.00 0.00 0.00 0.00 0.00 0.00 0.00 0.00 0.00 0.00 0.00 0.00 0.00 0.00 0.00
0.00 0.00 0.00 0.00 0.00 0.00 0.01 0.01 0.01 0.00 0.00 0.00 0.00 0.00 0.00 0.00 0.00 0.00 0.00 0.00 0.00 0.00 0.00 0.00 0.00 0.00 0.00 0.00 0.00 0.00 0.00 0.00 0.00 0.00 0.00 0.00 0.00 0.00 0.00 0.00 0.00 0.00 0.00 0.00 0.00 0.00 0.00
0.00 0.00 0.00 0.00 0.00 0.00 0.00 0.01 0.01 0.01 0.00 0.00 0.00 0.00 0.00 0.00 0.00 0.00 0.00 0.00 0.00 0.00 0.00 0.00 0.00 0.00 0.00 0.01 0.00 0.00 0.00 0.00 0.00 0.00 0.00 0.00 0.00 0.00 0.00 0.00 0.00 0.00 0.00 0.00 0.00 0.00 0.00
0.00 0.00 0.00 0.00 0.00 0.00 0.00 0.00 0.00 0.00 0.00 0.00 0.00 0.00 0.00 0.00 0.00 0.00 0.00 0.00 0.00 0.00 0.00 0.00 0.00 0.00 0.00 0.00 0.00 0.00 0.00 0.00 0.00 0.00 0.00 0.00 0.00 0.00 0.00 0.00 0.00 0.00 0.00 0.00 0.00 0.00 0.00
0.00 0.00 0.00 0.00 0.00 0.00 0.00 0.00 0.00 0.00 0.00 0.00 0.00 0.00 0.00 0.00 0.00 0.00 0.00 0.00 0.00 0.00 0.00 0.00 0.00 0.00 0.00 0.00 0.00 0.00 0.00 0.00 0.00 0.00 0.00 0.00 0.00 0.00 0.00 0.00 0.00 0.01 0.00 0.00 0.00 0.00 0.00
0.00 0.00 0.00 0.00 0.00 0.00 0.00 0.00 0.00 0.00 0.00 0.00 0.00 0.00 0.00 0.00 0.00 0.00 0.00 0.00 0.00 0.00 0.00 0.00 0.00 0.00 0.00 0.00 0.00 0.00 0.00 0.00 0.00 0.00 0.00 0.00 0.00 0.00 0.00 0.00 0.00 0.00 0.00 0.00 0.00 0.00 0.00
0.00 0.00 0.00 0.00 0.00 0.00 0.00 0.00 0.00 0.00 0.00 0.00 0.00 0.00 0.00 0.00 0.00 0.00 0.00 0.00 0.00 0.00 0.00 0.00 0.00 0.00 0.00 0.00 0.00 0.00 0.00 0.00 0.00 0.00 0.00 0.00 0.00 0.00 0.00 0.00 0.00 0.00 0.00 0.00 0.00 0.00 0.00
0.00 0.00 0.00 0.00 0.00 0.00 0.00 0.00 0.00 0.00 0.00 0.00 0.00 0.00 0.00 0.00 0.00 0.00 0.00 0.00 0.00 0.00 0.00 0.00 0.00 0.00 0.00 0.00 0.00 0.00 0.00 0.00 0.00 0.00 0.00 0.00 0.00 0.00 0.00 0.00 0.00 0.00 0.00 0.00 0.00 0.00 0.00
0.00 0.00 0.00 0.00 0.00 0.00 0.00 0.00 0.00 0.00 0.00 0.00 0.00 0.00 0.00 0.00 0.00 0.00 0.00 0.00 0.00 0.00 0.00 0.00 0.00 0.00 0.00 0.00 0.00 0.00 0.00 0.00 0.00 0.00 0.00 0.00 0.00 0.00 0.00 0.00 0.00 0.00 0.00 0.00 0.00 0.00 0.00
0.00 0.00 0.00 0.00 0.00 0.00 0.00 0.00 0.00 0.00 0.00 0.00 0.00 0.00 0.00 0.00 0.00 0.00 0.00 0.00 0.00 0.00 0.00 0.00 0.00 0.00 0.00 0.00 0.00 0.00 0.00 0.00 0.00 0.00 0.00 0.00 0.00 0.00 0.00 0.00 0.00 0.00 0.00 0.00 0.00 0.00 0.00
0.00 0.00 0.00 0.00 0.00 0.00 0.00 0.00 0.00 0.00 0.00 0.00 0.00 0.00 0.00 0.00 0.00 0.00 0.00 0.00 0.00 0.00 0.00 0.00 0.00 0.00 0.00 0.00 0.00 0.00 0.00 0.00 0.00 0.00 0.00 0.00 0.00 0.00 0.00 0.00 0.00 0.00 0.00 0.00 0.00 0.00 0.00
0.00 0.00 0.00 0.00 0.00 0.00 0.00 0.00 0.00 0.00 0.00 0.00 0.00 0.00 0.00 0.00 0.00 0.00 0.00 0.00 0.00 0.00 0.00 0.00 0.00 0.00 0.00 0.00 0.00 0.00 0.00 0.00 0.00 0.00 0.00 0.00 0.00 0.00 0.00 0.00 0.00 0.00 0.00 0.00 0.00 0.00 0.00
0.00 0.00 0.00 0.00 0.00 0.00 0.00 0.00 0.00 0.00 0.00 0.00 0.00 0.00 0.00 0.00 0.00 0.00 0.00 0.00 0.00 0.00 0.00 0.00 0.00 0.00 0.00 0.00 0.00 0.00 0.00 0.00 0.00 0.00 0.00 0.00 0.00 0.00 0.00 0.00 0.00 0.00 0.00 0.00 0.00 0.00 0.00
0.00 0.00 0.00 0.00 0.00 0.00 0.00 0.00 0.00 0.00 0.00 0.00 0.00 0.00 0.00 0.00 0.00 0.00 0.00 0.00 0.00 0.00 0.00 0.00 0.00 0.00 0.00 0.00 0.00 0.00 0.00 0.00 0.00 0.00 0.00 0.00 0.00 0.00 0.00 0.00 0.00 0.00 0.00 0.00 0.00 0.00 0.00
0.00 0.00 0.00 0.00 0.00 0.00 0.00 0.00 0.00 0.00 0.00 0.00 0.00 0.00 0.00 0.00 0.00 0.00 0.00 0.00 0.00 0.00 0.00 0.00 0.00 0.00 0.00 0.00 0.00 0.00 0.00 0.00 0.00 0.00 0.00 0.00 0.00 0.00 0.00 0.00 0.00 0.00 0.00 0.00 0.00 0.00 0.00
0.00 0.00 0.00 0.00 0.00 0.00 0.00 0.00 0.00 0.00 0.00 0.00 0.00 0.00 0.00 0.00 0.00 0.00 0.00 0.00 0.00 0.00 0.00 0.00 0.00 0.00 0.00 0.00 0.00 0.00 0.00 0.00 0.00 0.00 0.00 0.00 0.00 0.00 0.00 0.00 0.00 0.00 0.00 0.00 0.00 0.00 0.00
0.00 0.00 0.00 0.00 0.00 0.00 0.00 0.00 0.00 0.00 0.00 0.00 0.00 0.00 0.00 0.00 0.00 0.00 0.00 0.00 0.00 0.00 0.00 0.00 0.00 0.00 0.00 0.00 0.00 0.00 0.00 0.00 0.00 0.00 0.00 0.00 0.00 0.00 0.00 0.00 0.00 0.00 0.00 0.00 0.00 0.00 0.00
0.00 0.00 0.00 0.00 0.00 0.00 0.00 0.00 0.00 0.00 0.00 0.00 0.00 0.00 0.00 0.00 0.00 0.00 0.00 0.00 0.00 0.00 0.00 0.00 0.00 0.00 0.00 0.00 0.00 0.00 0.00 0.00 0.00 0.00 0.00 0.00 0.00 0.00 0.00 0.00 0.00 0.00 0.00 0.00 0.00 0.00 0.00
0.00 0.00 0.00 0.00 0.00 0.00 0.00 0.00 0.00 0.00 0.00 0.00 0.00 0.00 0.00 0.00 0.00 0.00 0.00 0.00 0.00 0.00 0.00 0.00 0.00 0.00 0.00 0.00 0.00 0.00 0.00 0.00 0.00 0.00 0.00 0.00 0.00 0.00 0.00 0.00 0.00 0.00 0.00 0.00 0.00 0.00 0.00
MSLP
1021.11 1020.71 1020.18 1019.29 1018.72 1018.08 1017.21 1016.46 1015.72 1014.84 1014.38 1012.88 1012.53 1012.99 1013.14 1013.34 1013.42 1013.35 1013.27 1013.27 1013.40 1013.42 1013.71 1013.68 1013.94 1013.87 1013.96 1014.95 1015.83 1015.89 1014.20 1014.49 1015.25 1015.89 1016.54 1017.10 1018.01 1018.78 1019.57 1020.04 1020.26 1020.35 1020.54 1020.44 1020.31 1020.07 1019.85
1021.38 1020.84 1020.28 1019.56 1018.76 1018.07 1017.32 1016.63 1015.91 1015.14 1014.78 1014.30 1013.75 1013.71 1013.87 1013.75 1013.81 1013.70 1013.45 1013.32 1013.38 1013.28 1013.44 1013.75 1013.79 1013.87 1014.28 1015.41 1016.01 1015.75 1015.60 1015.78 1015.73 1016.04 1016.99 1017.24 1017.94 1018.65 1019.60 1020.21 1020.48 1020.71 1020.72 1020.54 1019.93 1019.46 1019.41
1021.62 1021.16 1020.60 1019.68 1018.91 1018.17 1017.49 1016.83 1016.15 1015.56 1014.98 1014.86 1014.33 1014.11 1013.96 1014.10 1013.93 1013.70 1013.46 1013.30 1013.15 1013.09 1013.20 1013.28 1013.07 1013.75 1014.86 1016.08 1016.10 1016.43 1016.52 1016.65 1016.33 1016.55 1017.20 1017.52 1017.80 1018.54 1019.56 1020.27 1020.52 1020.78 1020.81 1020.14 1019.75 1019.44 1019.07
1021.77 1021.23 1020.60 1019.95 1019.14 1018.38 1017.57 1016.98 1016.38 1015.89 1015.32 1014.83 1014.93 1014.51 1014.31 1014.17 1014.08 1013.65 1013.49 1013.02 1012.47 1012.54 1013.04 1013.44 1013.56 1013.94 1015.66 1016.21 1016.40 1016.72 1017.09 1017.03 1016.89 1017.08 1017.44 1017.77 1017.94 1018.87 1019.72 1020.38 1020.78 1021.22 1021.33 1020.80 1019.92 1019.68 1019.17
1021.89 1021.40 1020.73 1020.12 1019.48 1018.52 1017.72 1017.14 1016.41 1015.96 1015.55 1015.12 1014.81 1014.71 1014.48 1014.26 1013.94 1013.72 1013.36 1013.05 1011.94 1012.42 1013.09 1013.59 1013.73 1014.27 1016.26 1016.28 1016.67 1017.13 1017.05 1017.34 1017.43 1017.70 1017.86 1018.04 1018.52 1019.73 1020.34 1021.03 1021.68 1021.96 1022.03 1021.62 1020.45 1019.74 1019.33
1022.04 1021.45 1021.01 1020.28 1019.49 1018.59 1018.02 1017.40 1016.63 1016.21 1015.88 1015.40 1014.96 1014.82 1014.46 1014.14 1013.85 1013.86 1013.62 1013.27 1013.03 1013.26 1013.78 1014.23 1014.65 1015.63 1017.14 1016.84 1017.01 1017.44 1017.34 1017.43 1017.91 1018.22 1018.66 1019.03 1019.84 1020.53 1021.22 1021.63 1022.05 1022.37 1022.50 1022.00 1021.12 1019.81 1019.27
1022.20 1021.68 1021.05 1020.50 1019.56 1018.81 1018.36 1017.84 1017.19 1016.50 1016.32 1015.70 1015.07 1014.96 1014.74 1014.42 1014.04 1014.11 1013.85 1013.82 1014.23 1014.86 1014.90 1015.42 1015.78 1015.91 1016.75 1017.47 1017.32 1017.60 1017.51 1017.60 1018.09 1018.73 1019.55 1019.96 1020.66 1021.19 1021.43 1021.68 1021.90 1022.43 1022.66 1022.07 1020.60 1019.65 1019.20
1022.43 1021.80 1021.27 1020.65 1019.82 1019.32 1018.76 1018.23 1017.59 1017.03 1016.71 1016.19 1015.56 1015.29 1015.09 1014.91 1014.73 1014.53 1014.67 1015.87 1016.92 1017.23 1016.77 1016.74 1016.70 1017.00 1017.43 1017.41 1017.75 1017.84 1017.60 1018.12 1018.60 1019.47 1020.15 1020.85 1020.97 1020.96 1021.24 1021.51 1021.80 1022.21 1022.22 1021.34 1019.84 1018.93 1018.54
1022.71 1022.04 1021.48 1021.05 1020.35 1019.62 1019.15 1018.64 1017.98 1017.40 1017.15 1016.66 1016.28 1015.80 1015.53 1015.15 1015.06 1015.31 1016.24 1017.21 1017.34 1017.42 1017.37 1018.22 1018.03 1017.85 1018.03 1017.67 1017.94 1018.05 1018.02 1018.36 1018.97 1019.83 1020.42 1020.66 1020.74 1020.62 1020.91 1021.19 1021.56 1021.49 1021.30 1020.54 1019.95 1018.69 1017.86
1023.03 1022.29 1021.76 1021.19 1020.61 1019.91 1019.39 1018.84 1018.57 1018.14 1017.80 1017.24 1016.70 1016.36 1015.81 1015.33 1015.74 1016.68 1016.73 1017.28 1017.21 1017.06 1017.66 1019.60 1018.94 1018.86 1018.44 1018.28 1018.45 1018.35 1018.33 1018.71 1019.10 1019.74 1020.24 1020.52 1020.35 1020.31 1020.26 1020.40 1020.84 1020.71 1019.48 1019.27 1019.15 1019.19 1017.80
1023.17 1022.64 1022.09 1021.37 1020.78 1020.35 1019.78 1019.12 1018.80 1018.57 1018.32 1017.85 1017.38 1016.75 1016.51 1015.82 1017.00 1017.56 1017.72 1017.17 1016.91 1016.83 1018.67 1020.49 1019.48 1019.20 1018.58 1018.52 1018.66 1018.65 1018.51 1018.46 1019.12 1019.54 1020.03 1019.87 1019.58 1019.72 1019.91 1019.60 1019.67 1018.85 1018.42 1018.56 1018.59 1018.24 1017.58
1023.24 1022.86 1022.40 1021.71 1021.04 1020.64 1020.09 1019.60 1019.28 1018.82 1018.39 1018.25 1017.88 1017.42 1016.94 1017.09 1017.29 1017.80 1017.45 1017.06 1017.16 1018.03 1020.33 1020.44 1019.90 1019.56 1019.12 1018.82 1018.72 1018.88 1018.98 1019.03 1019.28 1019.48 1019.42 1019.41 1019.01 1018.95 1018.58 1018.21 1018.09 1017.90 1017.94 1017.60 1017.46 1017.45 1016.97
1023.41 1023.01 1022.50 1021.90 1021.42 1020.75 1020.27 1019.96 1019.59 1018.95 1018.66 1018.35 1018.34 1018.08 1017.59 1017.86 1017.91 1017.64 1017.70 1017.70 1018.16 1019.47 1021.14 1020.77 1020.33 1019.87 1019.26 1019.04 1019.15 1019.15 1019.32 1019.39 1019.55 1019.66 1019.54 1019.01 1018.44 1017.98 1017.82 1017.77 1017.55 1017.89 1017.94 1017.44 1017.17 1016.74 1015.63
1023.41 1023.15 1022.73 1022.17 1021.59 1021.12 1020.43 1020.10 1019.66 1019.07 1018.82 1018.41 1018.08 1018.33 1018.31 1018.22 1018.10 1017.96 1018.16 1018.43 1019.37 1020.54 1020.35 1020.36 1020.03 1019.91 1019.47 1019.35 1019.28 1019.33 1019.53 1019.54 1019.44 1019.62 1019.48 1019.14 1018.23 1017.59 1017.23 1017.21 1017.23 1017.28 1017.27 1016.94 1016.73 1015.94 1015.00
1023.39 1023.20 1022.84 1022.27 1021.80 1021.16 1020.58 1020.09 1019.58 1018.98 1018.56 1018.31 1018.12 1018.68 1018.60 1018.29 1018.41 1018.39 1018.52 1019.67 1020.73 1020.56 1020.21 1020.00 1020.03 1019.77 1019.63 1019.35 1019.34 1019.34 1019.23 1018.97 1018.89 1019.11 1019.28 1018.77 1017.79 1017.03 1016.84 1016.74 1017.10 1016.62 1016.55 1016.55 1016.16 1015.48 1015.18
1023.42 1023.17 1022.84 1022.49 1021.90 1021.34 1020.70 1020.08 1019.49 1018.79 1018.22 1017.87 1018.66 1019.08 1018.90 1018.30 1018.57 1018.78 1018.98 1020.15 1020.82 1020.44 1019.95 1019.74 1019.63 1019.37 1019.30 1019.26 1019.19 1019.20 1018.87 1018.64 1018.44 1018.51 1018.77 1018.63 1018.01 1016.82 1016.54 1016.64 1016.62 1016.58 1016.45 1016.32 1016.16 1015.73 1015.18
1023.50 1023.18 1022.85 1022.51 1022.02 1021.50 1020.86 1020.17 1019.53 1018.82 1018.13 1018.06 1018.80 1019.27 1018.68 1018.53 1018.95 1019.17 1020.85 1021.10 1020.66 1020.09 1019.81 1019.58 1019.20 1019.02 1018.96 1019.03 1018.94 1018.81 1018.70 1018.34 1018.10 1018.28 1018.60 1018.47 1018.26 1016.98 1016.58 1016.18 1016.11 1016.19 1016.10 1016.29 1016.32 1015.99 1015.61
1023.52 1023.20 1022.80 1022.53 1022.11 1021.55 1020.92 1020.27 1019.66 1018.87 1018.15 1018.09 1019.33 1019.87 1018.87 1018.89 1019.33 1021.41 1021.92 1021.45 1020.61 1020.08 1019.66 1019.30 1018.99 1018.55 1018.55 1018.66 1018.70 1018.50 1018.19 1017.69 1017.53 1017.91 1018.32 1018.11 1017.96 1017.21 1016.07 1015.29 1015.18 1015.45 1015.92 1016.20 1016.15 1016.07 1015.84
1023.47 1023.09 1022.78 1022.43 1022.09 1021.67 1020.96 1020.20 1019.57 1019.03 1018.73 1019.21 1020.43 1020.37 1018.81 1018.80 1020.49 1022.07 1022.15 1021.57 1020.87 1020.18 1019.79 1019.34 1019.00 1018.71 1018.53 1018.74 1018.84 1018.25 1017.75 1017.19 1017.42 1017.72 1017.61 1017.64 1017.76 1017.36 1016.08 1015.80 1015.43 1015.46 1015.87 1015.91 1015.93 1015.97 1015.71
1023.39 1023.10 1022.72 1022.39 1022.06 1021.74 1021.07 1020.20 1019.51 1019.08 1018.71 1019.37 1020.85 1021.04 1020.49 1020.66 1021.47 1021.32 1021.57 1021.75 1021.02 1020.27 1020.03 1019.64 1019.27 1018.84 1018.82 1018.97 1018.89 1018.58 1018.17 1017.54 1017.56 1017.58 1017.41 1017.42 1017.61 1017.47 1016.89 1016.23 1016.06 1015.76 1015.54 1015.47 1015.49 1015.60 1015.25
1023.30 1023.05 1022.71 1022.42 1022.11 1021.62 1021.03 1020.36 1019.83 1019.35 1018.89 1019.39 1021.24 1022.70 1022.49 1022.49 1022.52 1021.83 1021.46 1021.48 1021.44 1020.92 1020.28 1019.94 1019.66 1019.78 1019.62 1019.45 1019.27 1019.12 1018.77 1018.32 1017.74 1017.77 1017.71 1017.87 1017.87 1017.60 1016.76 1016.31 1016.15 1015.79 1015.48 1015.27 1015.29 1014.92 1014.93
1023.22 1023.04 1022.77 1022.44 1022.11 1021.67 1021.05 1020.52 1020.10 1019.56 1019.06 1020.16 1021.64 1022.36 1022.82 1022.49 1022.52 1022.54 1021.80 1021.85 1021.08 1020.79 1020.43 1020.10 1020.13 1019.90 1019.75 1019.97 1020.13 1019.86 1019.35 1018.97 1018.78 1018.27 1018.39 1018.40 1018.28 1018.19 1017.28 1016.42 1016.20 1015.67 1014.99 1014.90 1014.79 1014.65 1014.56
1023.08 1022.94 1022.79 1022.53 1022.13 1021.65 1021.45 1021.05 1020.34 1019.79 1019.63 1020.90 1022.11 1022.25 1022.40 1023.10 1022.60 1022.35 1021.97 1021.42 1020.83 1020.16 1019.96 1019.90 1020.00 1019.97 1019.63 1019.38 1019.48 1019.50 1019.39 1019.17 1019.15 1019.23 1018.94 1018.94 1018.98 1018.89 1018.03 1017.03 1016.35 1015.60 1013.95 1013.95 1013.98 1013.97 1013.91
1022.90 1022.77 1022.74 1022.52 1022.16 1021.81 1021.48 1021.42 1021.03 1020.51 1020.41 1021.28 1022.30 1022.54 1022.55 1023.23 1022.92 1022.11 1021.46 1021.05 1020.77 1020.48 1020.11 1019.60 1019.56 1019.79 1019.38 1019.22 1019.16 1019.10 1019.24 1019.11 1019.01 1018.97 1019.19 1019.29 1019.32 1019.33 1018.68 1017.42 1016.30 1014.09 1013.58 1013.59 1013.67 1013.48 1013.40
1022.67 1022.57 1022.65 1022.57 1022.20 1021.96 1021.63 1021.51 1021.50 1020.81 1020.64 1021.26 1022.20 1022.76 1023.12 1022.94 1022.84 1022.24 1021.68 1021.39 1020.92 1020.71 1020.65 1019.95 1019.11 1018.67 1018.72 1018.90 1019.17 1019.19 1019.14 1019.00 1018.75 1018.66 1018.95 1019.13 1019.40 1019.55 1019.15 1018.08 1015.28 1013.89 1013.56 1013.63 1013.69 1013.12 1012.89
1022.36 1022.35 1022.48 1022.49 1022.25 1021.95 1021.81 1021.37 1021.69 1021.28 1020.87 1021.36 1021.97 1022.25 1022.70 1023.29 1022.51 1022.04 1022.01 1021.75 1021.70 1021.22 1020.65 1019.96 1019.52 1019.37 1018.96 1018.96 1019.56 1020.40 1020.26 1019.76 1019.30 1018.60 1018.49 1018.86 1018.99 1019.45 1019.13 1018.02 1015.61 1013.62 1013.25 1013.14 1013.37 1013.32 1012.87
1021.93 1021.97 1022.18 1022.32 1022.17 1022.00 1021.68 1021.59 1021.23 1021.48 1021.19 1021.30 1021.90 1022.09 1022.46 1023.00 1022.33 1022.12 1021.89 1021.67 1021.33 1021.47 1021.40 1020.75 1020.26 1019.86 1019.85 1019.97 1019.85 1020.20 1020.07 1019.86 1019.83 1019.39 1018.98 1019.12 1019.37 1019.34 1018.85 1017.99 1015.51 1014.13 1013.72 1013.45 1013.59 1013.42 1012.75
1021.49 1021.52 1021.65 1022.02 1021.94 1021.87 1021.71 1021.35 1021.37 1021.05 1021.30 1021.61 1021.90 1021.62 1021.67 1022.43 1021.90 1021.63 1021.33 1021.19 1021.40 1021.30 1021.29 1020.96 1020.97 1020.86 1020.70 1021.07 1021.22 1020.75 1020.50 1019.97 1019.94 1019.18 1018.60 1018.70 1019.02 1019.10 1018.65 1017.68 1015.79 1014.11 1014.14 1014.02 1013.19 1012.90 1012.85
1020.73 1020.85 1021.03 1021.46 1021.71 1021.65 1021.64 1021.38 1021.19 1021.11 1021.04 1021.33 1022.08 1021.99 1021.78 1021.78 1021.18 1020.78 1020.59 1020.24 1020.17 1020.28 1020.60 1021.28 1021.69 1021.47 1021.27 1021.36 1021.56 1021.27 1020.96 1020.57 1020.01 1019.61 1018.55 1018.47 1017.54 1017.48 1017.14 1015.08 1013.95 1013.85 1013.49 1013.04 1013.07 1013.13 1012.90
Thickness
5555 5545 5535 5522 5507 5495 5482 5467 5451 5439 5433 5439 5439 5438 5441 5442 5447 5453 5458 5463 5467 5470 5473 5481 5487 5499 5507 5510 5511 5517 5533 5537 5538 5543 5545 5547 5545 5545 5543 5545 5551 5554 5555 5558 5563 5563 5569
5549 5540 5529 5516 5504 5495 5483 5470 5458 5449 5441 5439 5441 5443 5441 5442 5444 5449 5455 5459 5463 5466 5469 5473 5482 5493 5500 5502 5503 5511 5519 5521 5529 5534 5532 5539 5541 5540 5536 5536 5542 5544 5546 5549 5556 5561 5565
5545 5534 5523 5514 5502 5494 5485 5475 5463 5456 5448 5442 5443 5442 5442 5440 5443 5448 5453 5458 5463 5466 5468 5474 5485 5489 5490 5491 5497 5499 5505 5508 5518 5523 5525 5530 5535 5536 5533 5532 5536 5537 5539 5543 5549 5553 5558
5542 5534 5523 5512 5501 5493 5487 5479 5467 5457 5451 5447 5439 5438 5437 5437 5441 5448 5452 5461 5469 5469 5469 5472 5479 5486 5479 5484 5489 5492 5493 5502 5510 5514 5517 5522 5528 5527 5528 5528 5525 5525 5525 5538 5546 5545 5552
5542 5533 5524 5512 5499 5492 5486 5479 5473 5461 5452 5444 5437 5428 5421 5430 5438 5445 5453 5461 5473 5474 5469 5473 5482 5486 5473 5480 5483 5484 5491 5495 5502 5506 5511 5517 5519 5514 5518 5508 5509 5508 5515 5517 5530 5536 5542
5543 5534 5523 5512 5502 5495 5486 5479 5475 5464 5451 5441 5430 5417 5408 5416 5433 5440 5449 5460 5467 5468 5468 5470 5473 5472 5462 5473 5476 5478 5487 5493 5494 5500 5501 5504 5498 5497 5497 5499 5518 5512 5493 5502 5508 5531 5533
5545 5533 5526 5513 5506 5496 5486 5478 5473 5468 5452 5441 5432 5412 5397 5404 5426 5438 5450 5458 5462 5463 5465 5463 5467 5473 5470 5466 5474 5478 5485 5492 5495 5493 5488 5494 5492 5487 5493 5497 5498 5495 5492 5494 5509 5522 5524
5546 5536 5526 5517 5508 5496 5487 5478 5473 5469 5458 5445 5436 5419 5396 5399 5422 5439 5448 5445 5442 5450 5460 5460 5465 5465 5465 5470 5470 5477 5486 5486 5490 5481 5485 5481 5487 5495 5495 5494 5496 5493 5490 5495 5511 5522 5524
5547 5538 5528 5518 5509 5500 5489 5479 5473 5469 5463 5453 5441 5433 5415 5417 5433 5443 5443 5441 5445 5449 5463 5453 5456 5462 5464 5472 5471 5475 5484 5485 5485 5480 5480 5484 5495 5496 5497 5492 5492 5489 5489 5493 5500 5511 5518
5547 5541 5531 5522 5514 5504 5494 5485 5474 5468 5465 5458 5451 5445 5441 5441 5446 5443 5449 5448 5454 5458 5445 5441 5450 5453 5463 5467 5466 5476 5482 5484 5486 5484 5481 5482 5492 5497 5496 5496 5490 5494 5504 5506 5503 5500 5516
5551 5543 5534 5528 5519 5508 5499 5492 5480 5473 5467 5464 5458 5455 5456 5457 5449 5445 5451 5458 5463 5465 5418 5438 5445 5451 5461 5465 5467 5473 5481 5488 5486 5491 5490 5493 5497 5494 5496 5505 5499 5512 5514 5510 5508 5506 5507
5554 5547 5538 5531 5524 5514 5506 5496 5485 5481 5476 5471 5467 5464 5463 5463 5460 5455 5459 5463 5465 5449 5433 5446 5447 5450 5459 5464 5471 5474 5479 5485 5486 5488 5494 5490 5499 5503 5504 5513 5510 5516 5509 5513 5511 5509 5515
5557 5550 5544 5537 5528 5522 5514 5503 5493 5490 5485 5480 5475 5471 5469 5465 5466 5467 5466 5465 5451 5435 5440 5449 5450 5456 5466 5472 5470 5477 5476 5481 5482 5487 5476 5491 5502 5510 5511 5509 5510 5508 5507 5516 5506 5521 5531
5561 5553 5547 5542 5535 5527 5522 5513 5503 5499 5495 5491 5487 5481 5477 5473 5472 5475 5471 5463 5451 5458 5461 5458 5463 5461 5473 5472 5477 5481 5478 5476 5480 5482 5488 5490 5489 5509 5515 5514 5518 5513 5513 5520 5521 5524 5534
5566 5558 5551 5547 5542 5535 5531 5523 5516 5511 5506 5503 5500 5492 5486 5485 5481 5480 5479 5473 5458 5461 5469 5467 5467 5471 5474 5481 5486 5487 5486 5493 5500 5492 5496 5504 5503 5515 5515 5519 5515 5520 5520 5516 5522 5526 5529
5570 5563 5556 5550 5547 5542 5537 5533 5529 5524 5519 5518 5506 5498 5495 5494 5488 5485 5485 5486 5467 5472 5477 5482 5484 5487 5487 5490 5492 5489 5499 5502 5505 5501 5500 5505 5510 5520 5521 5514 5515 5513 5518 5520 5517 5524 5532
5573 5567 5561 5556 5551 5548 5543 5540 5537 5534 5531 5526 5514 5506 5510 5504 5495 5490 5485 5478 5481 5484 5484 5489 5494 5497 5496 5496 5500 5503 5503 5505 5508 5506 5502 5504 5507 5519 5519 5517 5515 5518 5520 5514 5510 5517 5529
5576 5570 5565 5560 5555 5552 5550 5546 5543 5543 5542 5536 5517 5504 5517 5513 5499 5466 5473 5479 5489 5492 5492 5495 5498 5509 5507 5502 5505 5505 5510 5514 5515 5507 5501 5506 5505 5508 5525 5535 5533 5530 5519 5513 5518 5525 5518
5578 5574 5568 5564 5561 5556 5555 5555 5552 5550 5547 5536 5518 5502 5524 5522 5499 5472 5483 5492 5493 5496 5500 5503 5510 5511 5515 5513 5516 5515 5523 5528 5520 5512 5516 5514 5508 5509 5532 5534 5534 5526 5516 5516 5517 5515 5521
5579 5576 5572 5567 5564 5561 5558 5559 5559 5556 5554 5544 5525 5515 5516 5509 5498 5505 5501 5493 5496 5503 5506 5508 5508 5514 5519 5514 5512 5520 5517 5528 5524 5525 5529 5527 5514 5520 5527 5535 5529 5526 5535 5532 5532 5523 5542
5580 5576 5574 5570 5566 5565 5564 5562 5561 5557 5558 5552 5526 5510 5508 5499 5502 5506 5508 5507 5505 5502 5507 5507 5517 5506 5507 5513 5511 5513 5516 5517 5532 5527 5528 5524 5523 5511 5525 5530 5532 5533 5538 5539 5531 5539 5539
5579 5576 5573 5570 5568 5566 5567 5566 5563 5562 5560 5546 5538 5529 5513 5509 5507 5511 5511 5512 5519 5515 5512 5516 5514 5510 5512 5515 5510 5510 5515 5520 5524 5521 5523 5517 5521 5524 5528 5539 5533 5539 5548 5542 5546 5541 5541
5578 5575 5571 5568 5566 5566 5565 5564 5564 5563 5559 5542 5533 5529 5525 5510 5514 5511 5511 5516 5522 5522 5530 5524 5517 5514 5522 5527 5518 5514 5514 5516 5519 5521 5520 5518 5516 5512 5525 5526 5530 5545 5553 5554 5556 5548 5548
5575 5573 5570 5567 5565 5564 5564 5560 5560 5559 5557 5543 5530 5528 5528 5527 5517 5525 5525 5525 5523 5524 5529 5533 5527 5523 5530 5517 5518 5518 5513 5512 5513 5517 5514 5522 5517 5503 5506 5520 5528 5567 5558 5559 5555 5555 5549
5572 5570 5568 5564 5563 5561 5560 5558 5555 5557 5556 5550 5535 5527 5522 5526 5518 5527 5528 5526 5528 5525 5521 5530 5536 5537 5528 5529 5528 5531 5526 5540 5538 5531 5521 5514 5512 5509 5506 5497 5551 5565 5560 5554 5555 5561 5548
5570 5566 5565 5562 5559 5558 5556 5557 5552 5552 5554 5550 5541 5534 5523 5520 5527 5530 5524 5526 5523 5523 5527 5531 5533 5526 5534 5527 5528 5538 5529 5529 5536 5528 5520 5516 5513 5515 5507 5522 5563 5567 5560 5556 5554 5545 5552
5569 5565 5561 5559 5557 5555 5554 5552 5552 5548 5549 5549 5541 5537 5529 5521 5521 5521 5522 5525 5522 5518 5514 5518 5525 5531 5526 5522 5534 5524 5513 5517 5519 5523 5532 5515 5507 5511 5509 5504 5532 5540 5548 5548 5548 5554 5549
5565 5563 5559 5555 5553 5552 5551 5551 5548 5547 5544 5543 5539 5540 5537 5525 5525 5524 5525 5522 5516 5515 5520 5523 5523 5520 5517 5522 5519 5514 5511 5514 5512 5515 5528 5525 5510 5503 5496 5501 5514 5538 5540 5540 5541 5539 5541
5561 5560 5556 5553 5549 5548 5546 5546 5545 5543 5541 5540 5535 5534 5534 5532 5537 5533 5531 5531 5529 5525 5517 5508 5510 5508 5510 5501 5501 5500 5512 5495 5504 5520 5514 5514 5524 5521 5519 5532 5541 5535 5538 5541 5532 5532 5538